Location: Dunedin
(45.8670°S, 170.5000°E)
Time: 18:54:51
(UTC+13:00)

Cosmos 540 Rocket - Pass Details

Date: 24 January 2019
Orbit: 740 x 754 km, 74.1° (Epoch: 18 October)

Event Time Altitude Azimuth Distance (km) Brightness Sun altitude
Rises 22:09:51 0° 198° (SSW) 3,250 7.8 -8.1°
Reaches altitude 10° 22:12:20 10° 191° (S) 2,317 6.8 -8.4°
Maximum altitude 22:17:24 46° 117° (ESE) 1,022 4.0 -9.1°
Enters shadow 22:21:56 12° 46° (NE) 2,120 5.1 -9.7°
